TimeCDT,TemperatureF,Dew PointF,Humidity,Sea Level PressureIn,VisibilityMPH,Wind Direction,Wind SpeedMPH,Gust SpeedMPH,PrecipitationIn,Events,Conditions,WindDirDegrees,DateUTC
12:51 AM,73.9,69.1,85,30.02,10.0,SSE,6.9,-,N/A,,Partly Cloudy,160,2012-11-01 05:51:00
1:51 AM,72.0,68.0,87,30.02,10.0,SSE,6.9,-,N/A,,Clear,150,2012-11-01 06:51:00
2:51 AM,70.0,66.9,90,30.01,10.0,South,4.6,-,N/A,,Partly Cloudy,170,2012-11-01 07:51:00
3:51 AM,68.0,66.0,93,30.01,10.0,SSE,3.5,-,N/A,Fog,Patches of Fog,160,2012-11-01 08:51:00
4:11 AM,68.0,66.2,94,30.01,9.0,South,3.5,-,N/A,Fog,Patches of Fog,170,2012-11-01 09:11:00
4:33 AM,66.2,66.2,100,30.00,0.5,South,3.5,-,N/A,Fog,Fog,180,2012-11-01 09:33:00
4:38 AM,66.2,66.2,100,30.00,0.2,South,3.5,-,N/A,Fog,Fog,180,2012-11-01 09:38:00
4:51 AM,66.0,64.9,96,30.00,0.2,Calm,Calm,-,N/A,Fog,Fog,0,2012-11-01 09:51:00
5:51 AM,68.0,66.9,96,30.00,0.2,ESE,4.6,-,N/A,Fog,Fog,110,2012-11-01 10:51:00
6:51 AM,68.0,66.9,96,30.01,0.5,ESE,4.6,-,N/A,Fog,Fog,110,2012-11-01 11:51:00
7:11 AM,66.2,66.2,100,30.02,0.2,East,4.6,-,N/A,Fog,Fog,100,2012-11-01 12:11:00
7:26 AM,66.2,64.4,94,30.02,0.5,ESE,4.6,-,N/A,Fog,Fog,110,2012-11-01 12:26:00
7:39 AM,66.2,64.4,94,30.02,0.2,East,4.6,-,N/A,Fog,Fog,100,2012-11-01 12:39:00
7:51 AM,64.9,64.9,100,30.03,0.2,ESE,4.6,-,N/A,Fog,Fog,120,2012-11-01 12:51:00
8:26 AM,66.2,66.2,100,30.04,0.5,East,3.5,-,N/A,Fog,Fog,100,2012-11-01 13:26:00
8:31 AM,66.2,66.2,100,30.04,1.0,ESE,3.5,-,N/A,,Partly Cloudy,110,2012-11-01 13:31:00
8:51 AM,72.0,71.1,97,30.04,1.5,ESE,3.5,-,N/A,,Partly Cloudy,110,2012-11-01 13:51:00
8:55 AM,71.6,71.6,100,30.05,5.0,SE,3.5,-,N/A,,Partly Cloudy,130,2012-11-01 13:55:00
9:51 AM,79.0,71.1,77,30.06,10.0,South,8.1,-,N/A,,Partly Cloudy,170,2012-11-01 14:51:00
10:51 AM,82.0,69.1,65,30.07,10.0,SSW,11.5,-,N/A,,Scattered Clouds,210,2012-11-01 15:51:00
11:51 AM,84.0,66.9,56,30.06,10.0,SSW,9.2,-,N/A,,Mostly Cloudy,210,2012-11-01 16:51:00
12:43 PM,87.8,62.6,43,30.04,10.0,SE,12.7,20.7,N/A,Thunderstorm,Thunderstorm,140,2012-11-01 17:43:00
12:51 PM,82.9,63.0,51,30.04,10.0,SE,29.9,39.1,0.00,Rain-Thunderstorm,Light Thunderstorms and Rain,130,2012-11-01 17:51:00
1:49 PM,78.8,57.2,47,30.02,10.0,SSW,11.5,-,N/A,,Mostly Cloudy,210,2012-11-01 18:49:00
1:51 PM,78.1,57.0,48,30.02,10.0,SSW,9.2,-,0.00,,Mostly Cloudy,200,2012-11-01 18:51:00
2:51 PM,84.0,64.9,53,29.99,10.0,ENE,8.1,-,N/A,,Mostly Cloudy,70,2012-11-01 19:51:00
3:51 PM,86.0,66.9,53,29.97,10.0,SE,11.5,-,N/A,,Scattered Clouds,140,2012-11-01 20:51:00
4:51 PM,84.9,66.9,55,29.96,10.0,SSE,15.0,-,N/A,,Scattered Clouds,150,2012-11-01 21:51:00
5:51 PM,82.0,66.9,60,29.97,10.0,SSE,16.1,-,N/A,,Partly Cloudy,150,2012-11-01 22:51:00
6:51 PM,79.0,66.9,66,29.98,10.0,SE,9.2,-,N/A,,Partly Cloudy,140,2012-11-01 23:51:00
7:51 PM,75.0,66.9,76,29.99,10.0,SE,8.1,-,N/A,,Partly Cloudy,130,2012-11-02 00:51:00
8:51 PM,73.0,66.9,81,30.00,10.0,SE,8.1,-,N/A,,Partly Cloudy,130,2012-11-02 01:51:00
9:51 PM,73.0,66.9,81,30.01,10.0,SE,8.1,-,N/A,,Clear,130,2012-11-02 02:51:00
10:51 PM,73.0,66.9,81,30.01,10.0,SE,8.1,-,N/A,,Clear,140,2012-11-02 03:51:00
11:51 PM,72.0,66.0,81,30.00,10.0,SSE,8.1,-,N/A,,Clear,150,2012-11-02 04:51:00